Tracking 28531 objects as of 27-Feb-2024
HD Live streaming from Space Station
objects crossing your sky now

TITAN 3C TRANSTAGE DEB

Track TITAN 3C TRANSTAGE DEB now!


NORAD ID: 43449
Int'l Code: 1969-013J
Perigee: 36,321.0 km
Apogee: 37,395.9 km
Inclination: 0.9 °
Period: 1,490.8 minutes
Semi major axis: 43229 km
RCS: Unknown
Launch date: February 9, 1969
Source: United States (US)
Launch site: AIR FORCE EASTERN TEST RANGE (AFETR)

Note: This is SATELLITE DEBRIS
Your satellite tracking list
Your tracking list is empty




NASA's NSSDC Master Catalog

Two Line Element Set (TLE):
1 43449U 69013J   24057.80955540 -.00000086  00000-0  00000-0 0  9992
2 43449   0.8950 292.4857 0124327 198.2052 230.3676  0.96590150 20713
Source of the keplerian elements: AFSPC